User: anonymous   Login
Location: Unspecified
(0.0000°N, 0.0000°E)
Time: 18:07:05
(UTC+00:00)
Language:

RAX-2 - Orbit

View from above orbital plane
View from above orbital plane
View from above satellite
View from above satellite

Ground track
Ground track

The orbit data is extracted from the following two-line orbital elements,

1 37853U 11061D   16180.42818373  .00001698  00000-0  10562-3 0  9998
2 37853 101.7142 223.5055 0181679  50.5595 311.1534 14.99814471253586
Epoch (UTC): 28 June 2016 10:16:35
Eccentricity: 0.0181679
inclination: 101.7142°
perigee height: 441 km
apogee height: 693 km
right ascension of ascending node: 223.5055°
argument of perigee: 50.5595°
revolutions per day: 14.99814471
mean anomaly at epoch: 311.1534°
orbit number at epoch: 25358

The dashed part of the orbit path shows where the satellite is in the earth's shadow,  

DLR